User: anonymous   Login
Location: Melbourne
(37.8170°S, 144.9670°E)
Time: 15:12:41
(UTC+11:00)
Language:

Aureole 2 Rocket - Orbit

View from above orbital plane
View from above orbital plane
View from above satellite
View from above satellite

Ground track
Ground track

The orbit data is extracted from the following two-line orbital elements,

1 07004U 73107B   14355.54239126  .00028727  00000-0  69277-3 0  8077
2 07004 073.9469 200.1981 0275122 298.9710 081.0571 15.10325397 98563
Epoch (UTC): 21 December 2014 13:01:02
Eccentricity: 0.0275122
inclination: 73.9469°
perigee height: 345 km
apogee height: 725 km
right ascension of ascending node: 200.1981°
argument of perigee: 298.9710°
revolutions per day: 15.10325397
mean anomaly at epoch: 81.0571°
orbit number at epoch: 9856

The dashed part of the orbit path shows where the satellite is in the earth's shadow,  

DLR